Weather in Bazarniy Karabulak

Russia / Saratov Oblast     52°16′47″N   46°24′30″E
temp.,
°C
wind,
m/s
gust,
m/s
humid.,
%
clouds,
%
prec.,
mm/h
press.,
hPa
HPBL,
m
10 may, mon
mon1001:00+14nnw3576100 0.3 101093
04:00+13n4884100 0.3 1011188
07:00+13ne4882100 0.1 1011189
10:00+18ene61058100 0.1 1012603
13:00+24ese81437100 0.0 10122441
16:00+23e71243100 0.0 10122214
19:00+21ene61352100 0.0 1013448
22:00+13nw2287100 0.8 101640
11 may, tue
tue1101:00+17e81659100 0.0 1015612
04:00+14sse478081 0.0 1017315
07:00+10s5895100 1.4 1020444
10:00+10s358893 3.8 1023567
13:00+15sse46501 0.0 10241252
16:00+17sse34443 0.0 10251527
19:00+16ese235187 0.0 1026106
22:00+13nne4758100 0.1 1025176
12 may, wed
wed1201:00+11nne4993100 3.8 1025359
04:00+12ene61488100 5.1 1023515
07:00+14e61492100 1.1 1023608
10:00+15e8147699 1.3 1022816
13:00+18ese71166100 0.0 10221175
16:00+19ese8126356 0.0 10231263
19:00+17ese5127560 0.0 1023702
22:00+15e4117790 0.0 1023387
13 may, thu
thu1301:00+15ene41381100 0.0 1022327
04:00+15e61466100 0.1 1022413
07:00+15e61469100 0.1 1022429
10:00+14ene61285100 1.1 1021313
13:00+21ese71261100 0.0 10211129
16:00+23se7105594 0.0 10211569
19:00+21ese5116385 0.0 1021373
22:00+17ese4136775 0.0 1021263
14 may, fri
fri1401:00+15e347155 0.0 102156
04:00+13ene33705 0.0 102244
07:00+15e28695 0.0 1022224
10:00+21ese575054 0.0 1021495
13:00+25se6939100 0.0 10211002
16:00+26sse7114074 0.0 10201656
19:00+23se4105231 0.0 1020272
22:00+18ese24570 0.0 102047